Weather History for Boulder City, NV

Change the Weather History Date:

Tuesday, January 29, 2013

  Actual Average (KLAS) Record (KLAS)
Temperature  
Mean Temperature 44 °F 50 °F  
Max Temperature 55 °F 59 °F 71 °F (1953)
Min Temperature 32 °F 41 °F 17 °F (1979)
Degree Days  
Heating Degree Days 22 15  
Month to date heating degree days 475  
Since 1 July heating degree days 1322  
Cooling Degree Days 0 0  
Month to date cooling degree days 0  
Year to date cooling degree days 0  
Moisture  
Dew Point 23 °F    
Average Humidity 43    
Maximum Humidity 69    
Minimum Humidity 31    
Precipitation  
Precipitation 0.00 in 0.02 in 0.44 in (1941)
Month to date precipitation 0.50  
Year to date precipitation 0.50  
Snow  
Snow 0.00 in 0.00 in 1.00 in (1957)
Month to date snowfall 0.0  
Since 1 July snowfall 0.2  
Snow Depth -    
Sea Level Pressure  
Sea Level Pressure 30.09 in    
Wind  
Wind Speed 7 mph (NNE)    
Max Wind Speed 17 mph    
Max Gust Speed 18 mph    
Visibility 10 miles    
Events      
T = Trace of Precipitation, MM = Missing Value Source: NWS Daily Summary

Daily Weather History Graph

Daily Weather History Graph

Search for Another Location

Airport:

Trip Planner

Search our weather history database for the weather conditions in past years. The results will help you decide how hot, cold, wet, or windy it might be!

Date:

Astronomy

Jan. 29, 2013 Rise Set
Actual Time 6:41 AM PST 5:03 PM PST
Civil Twilight 6:14 AM PST 5:30 PM PST
Nautical Twilight 5:44 AM PST 6:01 PM PST
Astronomical Twilight 5:13 AM PST 6:31 PM PST
Moon 7:56 PM PST (1/29) 7:47 AM PST (1/29)
Length of Visible Light 11h 15m
Length of Day
10h 21m
Waning Gibbous, 93% of the Moon is Illuminated
Jan 29
Waning Gibbous
Feb 3
Last Quarter
Feb 9
New
Feb 17
First Quarter
Feb 25
Full

Hourly Weather History & Observations

Time (PST) Temp. Windchill Dew Point Humidity Pressure Visibility Wind Dir Wind Speed Gust Speed Precip Events Conditions
12:15 AM 41.0 °F 33.9 °F 15.8 °F 36% 30.05 in 10.0 mi NNW 12.7 mph - N/A   Unknown
12:35 AM 41.0 °F 33.9 °F 17.6 °F 39% 30.05 in 10.0 mi NW 12.7 mph - N/A   Unknown
12:55 AM 41.0 °F 33.9 °F 17.6 °F 39% 30.05 in 10.0 mi NNW 12.7 mph 18.4 mph N/A   Unknown
1:15 AM 41.0 °F 33.1 °F 15.8 °F 36% 30.05 in 10.0 mi NNW 15.0 mph - N/A   Unknown
1:35 AM 41.0 °F 32.5 °F 15.8 °F 36% 30.05 in 10.0 mi NNW 17.3 mph - N/A   Unknown
1:55 AM 41.0 °F 34.3 °F 17.6 °F 39% 30.06 in 10.0 mi NNW 11.5 mph - N/A   Unknown
2:15 AM 39.2 °F 32.5 °F 17.6 °F 42% 30.06 in 10.0 mi NNW 10.4 mph - N/A   Unknown
2:35 AM 39.2 °F 33.0 °F 17.6 °F 42% 30.06 in 10.0 mi North 9.2 mph - N/A   Unknown
2:55 AM 39.2 °F 32.5 °F 17.6 °F 42% 30.05 in 10.0 mi North 10.4 mph - N/A   Unknown
3:15 AM 41.0 °F 37.1 °F 17.6 °F 39% 30.05 in 10.0 mi NNW 5.8 mph - N/A   Unknown
3:35 AM 37.4 °F - 19.4 °F 48% 30.05 in 10.0 mi Calm Calm - N/A   Unknown
3:55 AM 37.4 °F - 19.4 °F 48% 30.05 in 10.0 mi Calm Calm - N/A   Unknown
4:15 AM 37.4 °F - 19.4 °F 48% 30.05 in 10.0 mi Calm Calm - N/A   Unknown
4:35 AM 35.6 °F 31.7 °F 19.4 °F 52% 30.04 in 10.0 mi West 4.6 mph - N/A   Unknown
4:55 AM 37.4 °F 34.9 °F 19.4 °F 48% 30.05 in 10.0 mi WNW 3.5 mph - N/A   Unknown
5:15 AM 37.4 °F - 19.4 °F 48% 30.05 in 10.0 mi Calm Calm - N/A   Unknown
5:35 AM 35.6 °F - 19.4 °F 52% 30.05 in 10.0 mi Calm Calm - N/A   Unknown
5:55 AM 35.6 °F - 19.4 °F 52% 30.06 in 10.0 mi Calm Calm - N/A   Unknown
6:15 AM 33.8 °F - 21.2 °F 60% 30.06 in 10.0 mi Calm Calm - N/A   Unknown
6:35 AM 32.0 °F 26.4 °F 23.0 °F 69% 30.06 in 10.0 mi NNE 5.8 mph - N/A   Unknown
7:15 AM 37.4 °F - 19.4 °F 48% 30.06 in 10.0 mi Calm Calm - N/A   Unknown
7:35 AM 37.4 °F - 21.2 °F 52% 30.07 in 10.0 mi Calm Calm - N/A   Unknown
7:55 AM 39.2 °F - 21.2 °F 49% 30.07 in 10.0 mi Calm Calm - N/A   Unknown
8:15 AM 39.2 °F - 19.4 °F 45% 30.08 in 8.0 mi Calm Calm - N/A   Unknown
8:35 AM 41.0 °F 39.0 °F 19.4 °F 42% 30.08 in 10.0 mi SE 3.5 mph - N/A   Unknown
8:55 AM 41.0 °F - 19.4 °F 42% 30.08 in 10.0 mi Calm Calm - N/A   Unknown
9:15 AM 42.8 °F 41.1 °F 21.2 °F 42% 30.08 in 10.0 mi SSE 3.5 mph - N/A   Unknown
9:35 AM 44.6 °F - 23.0 °F 43% 30.08 in 10.0 mi Calm Calm - N/A   Unknown
9:55 AM 46.4 °F - 21.2 °F 37% 30.08 in 10.0 mi Calm Calm - N/A   Unknown
10:15 AM 46.4 °F - 23.0 °F 40% 30.09 in 10.0 mi Calm Calm - N/A   Unknown
10:35 AM 48.2 °F - 23.0 °F 37% 30.09 in 10.0 mi Calm Calm - N/A   Unknown
10:55 AM 50.0 °F - 23.0 °F 35% 30.08 in 10.0 mi Calm Calm - N/A   Unknown
11:15 AM 50.0 °F - 23.0 °F 35% 30.07 in 10.0 mi Calm Calm - N/A   Unknown
11:35 AM 53.6 °F - 24.8 °F 33% 30.06 in 10.0 mi WNW 4.6 mph - N/A   Unknown
11:55 AM 53.6 °F - 24.8 °F 33% 30.05 in 10.0 mi NW 6.9 mph 16.1 mph N/A   Unknown
12:15 PM 53.6 °F - 24.8 °F 33% 30.04 in 10.0 mi West 12.7 mph 17.3 mph N/A   Unknown
12:35 PM 55.4 °F - 24.8 °F 31% 30.03 in 10.0 mi SW 6.9 mph - N/A   Unknown
12:55 PM 55.4 °F - 24.8 °F 31% 30.02 in 10.0 mi SSE 6.9 mph - N/A   Unknown
1:15 PM 55.4 °F - 24.8 °F 31% 30.03 in 10.0 mi Calm Calm - N/A   Unknown
1:35 PM 55.4 °F - 24.8 °F 31% 30.03 in 10.0 mi SSW 5.8 mph - N/A   Unknown
1:55 PM 55.4 °F - 24.8 °F 31% 30.03 in 10.0 mi Calm Calm - N/A   Unknown
2:15 PM 55.4 °F - 24.8 °F 31% 30.03 in 10.0 mi SSW 11.5 mph - N/A   Unknown
2:35 PM 55.4 °F - 24.8 °F 31% 30.03 in 10.0 mi SSW 9.2 mph - N/A   Unknown
2:55 PM 55.4 °F - 24.8 °F 31% 30.04 in 10.0 mi South 8.1 mph - N/A   Unknown
3:15 PM 55.4 °F - 24.8 °F 31% 30.04 in 10.0 mi South 6.9 mph - N/A   Unknown
3:35 PM 55.4 °F - 24.8 °F 31% 30.05 in 10.0 mi Calm Calm - N/A   Unknown
3:55 PM 51.8 °F - 24.8 °F 35% 30.05 in 10.0 mi ENE 10.4 mph - N/A   Unknown
4:15 PM 51.8 °F - 23.0 °F 33% 30.06 in 10.0 mi East 9.2 mph - N/A   Unknown
4:35 PM 50.0 °F - 23.0 °F 35% 30.07 in 10.0 mi ENE 10.4 mph - N/A   Unknown
4:55 PM 50.0 °F - 24.8 °F 37% 30.07 in 10.0 mi ENE 8.1 mph - N/A   Unknown
5:15 PM 48.2 °F - 24.8 °F 40% 30.07 in 10.0 mi ENE 8.1 mph - N/A   Unknown
5:35 PM 46.4 °F 42.4 °F 24.8 °F 43% 30.08 in 10.0 mi NNE 8.1 mph - N/A   Unknown
5:55 PM 46.4 °F 42.9 °F 24.8 °F 43% 30.08 in 10.0 mi NE 6.9 mph - N/A   Unknown
6:15 PM 46.4 °F 42.9 °F 24.8 °F 43% 30.09 in 10.0 mi NE 6.9 mph - N/A   Unknown
6:35 PM 44.6 °F 39.7 °F 24.8 °F 46% 30.11 in 10.0 mi NE 9.2 mph - N/A   Unknown
6:55 PM 46.4 °F 42.4 °F 24.8 °F 43% 30.11 in 10.0 mi NE 8.1 mph - N/A   Unknown
7:15 PM 44.6 °F 40.2 °F 24.8 °F 46% 30.13 in 10.0 mi NE 8.1 mph - N/A   Unknown
7:35 PM 44.6 °F 40.2 °F 24.8 °F 46% 30.15 in 10.0 mi NE 8.1 mph - N/A   Unknown
7:55 PM 46.4 °F 42.9 °F 24.8 °F 43% 30.16 in 10.0 mi NE 6.9 mph - N/A   Unknown
8:15 PM 46.4 °F 42.9 °F 24.8 °F 43% 30.18 in 10.0 mi NNE 6.9 mph - N/A   Unknown
8:35 PM 44.6 °F 39.7 °F 24.8 °F 46% 30.18 in 10.0 mi NE 9.2 mph - N/A   Unknown
8:55 PM 44.6 °F 39.7 °F 26.6 °F 49% 30.19 in 10.0 mi North 9.2 mph - N/A   Unknown
9:15 PM 44.6 °F 40.7 °F 26.6 °F 49% 30.20 in 10.0 mi NNE 6.9 mph - N/A   Unknown
9:35 PM 41.0 °F 37.1 °F 26.6 °F 57% 30.20 in 10.0 mi North 5.8 mph - N/A   Unknown
9:55 PM 44.6 °F - 26.6 °F 49% 30.21 in 10.0 mi Calm Calm - N/A   Unknown
10:15 PM 44.6 °F - 26.6 °F 49% 30.23 in 10.0 mi Calm Calm - N/A   Unknown
10:35 PM 41.0 °F - 26.6 °F 57% 30.24 in 10.0 mi Calm Calm - N/A   Unknown
10:55 PM 39.2 °F 34.2 °F 26.6 °F 61% 30.25 in 10.0 mi North 6.9 mph - N/A   Unknown
11:15 PM 41.0 °F 39.0 °F 28.4 °F 61% 30.26 in 10.0 mi SE 3.5 mph - N/A   Unknown
11:35 PM 39.2 °F - 28.4 °F 65% 30.26 in 10.0 mi Calm Calm - N/A   Unknown
11:55 PM 41.0 °F - 28.4 °F 61% 30.26 in 10.0 mi Calm Calm - N/A   Unknown